Location: Sulphur Springs (historical)
(38.1246°N, 122.1900°W)
Time: 09:25:23
(UTC+00:00)

Cosmos 1689 Rocket - Pass Details

Date: 29 October 2020
Orbit: 360 x 375 km, 97.5° (Epoch: 23 November)

Event Time Altitude Azimuth Distance (km) Brightness Sun altitude
Rises 13:17:53 0° 161° (SSE) 2,225 6.3 -15.1°
Reaches altitude 10° 13:19:50 10° 158° (SSE) 1,376 5.2 -14.8°
Maximum altitude 13:22:44 63° 77° (ENE) 422 2.5 -14.2°
Drops below altitude 10° 13:25:38 10° 355° (N) 1,377 4.7 -13.6°
Sets 13:27:35 0° 352° (N) 2,228 5.8 -13.2°
